Location: Navalespino
(40.5894°N, 4.2660°W)
Time: 22:58:24
(UTC+00:00)

Cosmos 1459 Rocket - Pass Details

Date: 18 April 2024
Orbit: 936 x 999 km, 83.0° (Epoch: 23 May)

Event Time Altitude Azimuth Distance (km) Brightness Sun altitude
Rises 22:29:14 0° 351° (N) 3,607 7.9 -32.6°
Reaches altitude 10° 22:31:43 10° 351° (N) 2,662 7.0 -32.8°
Enters shadow 22:36:38 61° 342° (NNW) 1,071 4.3 -33.3°
